NORTHEAST SUFFOLK  -  Air Quality Alert Air Quality Alert        NORTHERN NASSAU  -  Air Quality Alert Air Quality Alert        NORTHERN QUEENS  -  Air Quality Alert Air Quality Alert        NORTHWEST SUFFOLK  -  Air Quality Alert Air Quality Alert        SOUTHEAST SUFFOLK  -  Air Quality Alert Air Quality Alert        SOUTHERN NASSAU  -  Air Quality Alert Air Quality Alert        SOUTHERN QUEENS  -  Air Quality Alert Air Quality Alert        SOUTHWEST SUFFOLK  -  Air Quality Alert Air Quality Alert      

Active alerts

Northern Queens
  Details for Northern Queens Air Quality Alert
Southern Queens
  Details for Southern Queens Air Quality Alert
Northern Nassau
  Details for Northern Nassau Air Quality Alert
Southern Nassau
  Details for Southern Nassau Air Quality Alert
Northwest Suffolk
  Details for Northwest Suffolk Air Quality Alert
Southwest Suffolk
  Details for Southwest Suffolk Air Quality Alert
Northeast Suffolk
  Details for Northeast Suffolk Air Quality Alert
Southeast Suffolk
  Details for Southeast Suffolk Air Quality Alert


WXM80 ListenWXM80 Stop

You find our weather info also at:

UK Metoffice

WeatherCloud

Weather Underground

Northeastern Weather Network

AWEKAS

Citizen Weather Observer Program (CWOP)

HAMweather, WeatherForYou, PWS Weather


Weather Underground History page Text

Daily Summary for July 3, 2017 Units:  Metric    English   Both
« Previous Day
Next Day »
Daily Weekly Monthly Yearly Custom
  High: Low: Average:
Temperature: 34.9 °C 20.4 °C 27.1 °C
Dew Point: 21.3 °C 18.1 °C 19.6 °C
Humidity: 90 % 40 % 66 %
Wind Speed: 8 km/h 0 km/h 1.9 km/h
Wind Gust: 19.3 km/h - -
Wind:- - WSW
Pressure: 1014.8 hPa 1012.1 hPa -
Precipitation: 0 mm    
Historical Graphs
 
 
Tabular Data for July 3, 2017
Time Temperature Dew Point Pressure Wind Wind Speed Wind Gust Humidity Rainfall Rate (Hourly)
00:03 24.2 °C 19.4 °C 1012.4 hPa Calm     75 % 0 mm
00:08 24.2 °C 19.4 °C 1012.4 hPa Calm     75 % 0 mm
00:13 24.1 °C 19.4 °C 1012.4 hPa Calm   1.9 km/h 75 % 0 mm
00:18 24.1 °C 19.3 °C 1012.4 hPa Calm     75 % 0 mm
00:23 24 °C 19.5 °C 1012.4 hPa Calm     76 % 0 mm
00:28 23.9 °C 19.4 °C 1012.4 hPa SW 0.2 km/h 1.9 km/h 76 % 0 mm
00:33 23.9 °C 19.4 °C 1012.4 hPa SW 0.8 km/h 3.7 km/h 76 % 0 mm
00:38 23.8 °C 19.3 °C 1012.4 hPa Calm   1.9 km/h 76 % 0 mm
00:43 23.8 °C 19.5 °C 1012.4 hPa Calm   1.9 km/h 77 % 0 mm
00:48 23.8 °C 19.5 °C 1012.4 hPa Calm   1.9 km/h 77 % 0 mm
00:53 23.7 °C 19.4 °C 1012.8 hPa Calm     77 % 0 mm
00:58 23.7 °C 19.7 °C 1012.4 hPa Calm     78 % 0 mm
01:03 23.7 °C 19.7 °C 1012.8 hPa Calm     78 % 0 mm
01:08 23.7 °C 19.6 °C 1012.4 hPa Calm     78 % 0 mm
01:13 23.7 °C 19.6 °C 1012.4 hPa Calm     78 % 0 mm
01:18 23.6 °C 19.6 °C 1012.4 hPa Calm     78 % 0 mm
01:23 23.5 °C 19.7 °C 1012.4 hPa Calm     79 % 0 mm
01:28 23.4 °C 19.6 °C 1012.4 hPa Calm     79 % 0 mm
01:33 23.3 °C 19.6 °C 1012.4 hPa Calm     80 % 0 mm
01:38 23.2 °C 19.5 °C 1012.4 hPa Calm     80 % 0 mm
01:43 23.1 °C 19.4 °C 1012.4 hPa Calm     80 % 0 mm
01:48 22.9 °C 19.3 °C 1012.4 hPa Calm     80 % 0 mm
01:53 22.9 °C 19.4 °C 1012.4 hPa Calm     81 % 0 mm
01:58 22.8 °C 19.4 °C 1012.4 hPa Calm     81 % 0 mm
02:04 22.7 °C 19.5 °C 1012.4 hPa Calm     82 % 0 mm
02:09 22.6 °C 19.4 °C 1012.4 hPa Calm   1.9 km/h 82 % 0 mm
02:14 22.6 °C 19.3 °C 1012.4 hPa Calm     82 % 0 mm
02:19 22.4 °C 19.4 °C 1012.4 hPa Calm     83 % 0 mm
02:24 22.3 °C 19.3 °C 1012.4 hPa Calm     83 % 0 mm
02:29 22.3 °C 19.2 °C 1012.1 hPa Calm   1.9 km/h 83 % 0 mm
02:34 22.2 °C 19.3 °C 1012.4 hPa Calm     84 % 0 mm
02:39 22.1 °C 19.3 °C 1012.4 hPa SW 0.5 km/h 1.9 km/h 84 % 0 mm
02:44 22.1 °C 19.2 °C 1012.1 hPa Calm   1.9 km/h 84 % 0 mm
02:49 22 °C 19.3 °C 1012.1 hPa SW 0.3 km/h 1.9 km/h 85 % 0 mm
02:54 21.9 °C 19.3 °C 1012.1 hPa SW 0.2 km/h 1.9 km/h 85 % 0 mm
02:59 21.9 °C 19.3 °C 1012.1 hPa Calm     85 % 0 mm
03:04 21.9 °C 19.3 °C 1012.1 hPa SW 0.2 km/h 1.9 km/h 85 % 0 mm
03:09 21.9 °C 19.3 °C 1012.1 hPa Calm     85 % 0 mm
03:14 21.8 °C 19.2 °C 1012.1 hPa SW 0.2 km/h 1.6 km/h 85 % 0 mm
03:19 21.8 °C 19.2 °C 1012.1 hPa Calm     85 % 0 mm
03:24 21.8 °C 19.2 °C 1012.1 hPa Calm   1.9 km/h 85 % 0 mm
03:27 21.8 °C 19.2 °C 1012.1 hPa SW 0.3 km/h 1.9 km/h 85 % 0 mm
03:33 21.7 °C 19.1 °C 1012.1 hPa Calm   1.9 km/h 85 % 0 mm
03:38 21.7 °C 19.2 °C 1012.1 hPa SW 0.3 km/h 1.9 km/h 86 % 0 mm
03:43 21.6 °C 19.2 °C 1012.1 hPa SW 0.2 km/h 1.9 km/h 86 % 0 mm
03:48 21.6 °C 19.1 °C 1012.1 hPa SW 1.6 km/h 3.7 km/h 86 % 0 mm
03:53 21.6 °C 19.1 °C 1012.1 hPa Calm   1.9 km/h 86 % 0 mm
03:58 21.5 °C 19.1 °C 1012.1 hPa SW 0.3 km/h 3.7 km/h 86 % 0 mm
04:03 21.5 °C 19.1 °C 1012.1 hPa SW 0.2 km/h 1.9 km/h 86 % 0 mm
04:08 21.4 °C 19 °C 1012.1 hPa Calm   1.6 km/h 86 % 0 mm
04:13 21.4 °C 19 °C 1012.4 hPa SW 0.3 km/h 1.9 km/h 86 % 0 mm
04:18 21.4 °C 19 °C 1012.4 hPa Calm   1.9 km/h 86 % 0 mm
04:23 21.4 °C 19 °C 1012.4 hPa Calm     86 % 0 mm
04:28 21.5 °C 19.1 °C 1012.1 hPa SW 1.1 km/h 3.7 km/h 86 % 0 mm
04:33 21.4 °C 19 °C 1012.4 hPa Calm   1.9 km/h 86 % 0 mm
04:38 21.5 °C 19.1 °C 1012.4 hPa SW 0.2 km/h 1.6 km/h 86 % 0 mm
04:43 21.5 °C 19.1 °C 1012.4 hPa SW 0.5 km/h 3.2 km/h 86 % 0 mm
04:48 21.4 °C 19 °C 1012.4 hPa SW 0.3 km/h 3.7 km/h 86 % 0 mm
04:53 21.4 °C 18.9 °C 1012.4 hPa Calm     86 % 0 mm
04:58 21.3 °C 19.1 °C 1012.4 hPa Calm   1.9 km/h 87 % 0 mm
05:03 21.3 °C 19 °C 1012.4 hPa Calm   1.9 km/h 87 % 0 mm
05:08 21.2 °C 18.9 °C 1012.8 hPa Calm   1.9 km/h 87 % 0 mm
05:13 21.2 °C 18.9 °C 1012.8 hPa SW 0.3 km/h 1.6 km/h 87 % 0 mm
05:18 21.1 °C 18.9 °C 1012.8 hPa Calm     87 % 0 mm
05:23 21.1 °C 18.6 °C 1012.8 hPa Calm     86 % 0 mm
05:29 21 °C 18.6 °C 1012.8 hPa Calm     86 % 0 mm
05:34 20.9 °C 18.7 °C 1012.8 hPa Calm     87 % 0 mm
05:39 20.8 °C 18.6 °C 1013.1 hPa Calm     87 % 0 mm
05:44 20.8 °C 18.6 °C 1012.8 hPa Calm     87 % 0 mm
05:49 20.7 °C 18.4 °C 1012.8 hPa Calm     87 % 0 mm
05:54 20.6 °C 18.4 °C 1013.1 hPa Calm     87 % 0 mm
05:59 20.6 °C 18.3 °C 1012.8 hPa Calm     87 % 0 mm
06:04 20.5 °C 18.4 °C 1012.8 hPa Calm     88 % 0 mm
06:09 20.5 °C 18.4 °C 1012.8 hPa Calm     88 % 0 mm
06:14 20.4 °C 18.6 °C 1012.8 hPa Calm     89 % 0 mm
06:19 20.4 °C 18.6 °C 1012.8 hPa SW 0.3 km/h 1.9 km/h 89 % 0 mm
06:24 20.5 °C 18.6 °C 1012.8 hPa SW 1.3 km/h 3.7 km/h 89 % 0 mm
06:29 20.6 °C 18.8 °C 1013.1 hPa SW 1.6 km/h 3.7 km/h 90 % 0 mm
06:34 20.6 °C 18.7 °C 1013.1 hPa WSW 1 km/h 5.6 km/h 89 % 0 mm
06:39 20.7 °C 18.8 °C 1013.1 hPa WSW 2.3 km/h 3.7 km/h 89 % 0 mm
06:44 20.9 °C 19 °C 1013.1 hPa SW 1.1 km/h 5.6 km/h 89 % 0 mm
06:49 21.1 °C 19.2 °C 1013.1 hPa SW 0.6 km/h 3.7 km/h 89 % 0 mm
06:54 21.3 °C 19.4 °C 1013.1 hPa SW 1.8 km/h 5.6 km/h 89 % 0 mm
06:59 21.6 °C 19.5 °C 1013.1 hPa SW 0.3 km/h 1.9 km/h 88 % 0 mm
07:04 21.8 °C 19.5 °C 1013.1 hPa WSW 1.6 km/h 3.7 km/h 87 % 0 mm
07:06 21.9 °C 19.6 °C 1013.1 hPa WSW 2.9 km/h 8 km/h 87 % 0 mm
07:11 22.2 °C 19.7 °C 1013.1 hPa WSW 0.8 km/h 3.7 km/h 86 % 0 mm
07:16 22.5 °C 19.8 °C 1013.1 hPa WSW 1.3 km/h 5.6 km/h 85 % 0 mm
07:21 22.8 °C 20 °C 1013.1 hPa West 1.3 km/h 3.7 km/h 84 % 0 mm
07:26 23.1 °C 20.3 °C 1013.1 hPa WNW 2.1 km/h 4.8 km/h 84 % 0 mm
07:31 23.4 °C 20.3 °C 1013.4 hPa West 2.6 km/h 5.6 km/h 83 % 0 mm
07:36 23.7 °C 20.4 °C 1013.1 hPa Calm     82 % 0 mm
07:41 23.8 °C 20.2 °C 1013.4 hPa Calm   1.9 km/h 80 % 0 mm
07:46 24.1 °C 20.4 °C 1013.4 hPa West 2.1 km/h 5.6 km/h 80 % 0 mm
07:51 24.2 °C 20.3 °C 1013.4 hPa West 3.1 km/h 5.6 km/h 79 % 0 mm
07:56 24.3 °C 20.2 °C 1013.4 hPa SW 4.3 km/h 5.6 km/h 78 % 0 mm
08:01 24.4 °C 20.1 °C 1013.4 hPa WSW 1.1 km/h 5.6 km/h 77 % 0 mm
08:06 24.4 °C 20.2 °C 1013.4 hPa West 5 km/h 9.3 km/h 77 % 0 mm
08:11 24.5 °C 20.2 °C 1013.4 hPa WSW 6.1 km/h 11.1 km/h 77 % 0 mm
08:16 24.6 °C 20.3 °C 1013.4 hPa SW 4 km/h 7.4 km/h 77 % 0 mm
08:21 24.6 °C 20.3 °C 1013.1 hPa West 2.7 km/h 5.6 km/h 77 % 0 mm
08:27 24.6 °C 20.3 °C 1013.1 hPa WSW 2.9 km/h 5.6 km/h 77 % 0 mm
08:31 24.6 °C 19.9 °C 1013.4 hPa West 5.5 km/h 11.1 km/h 75 % 0 mm
08:37 24.7 °C 19.9 °C 1013.4 hPa West 4.8 km/h 6.4 km/h 75 % 0 mm
08:42 24.7 °C 19.8 °C 1013.4 hPa SW 6.1 km/h 9.3 km/h 74 % 0 mm
08:43 24.7 °C 19.8 °C 1013.4 hPa WSW 8 km/h 13 km/h 74 % 0 mm
08:48 24.8 °C 19.9 °C 1013.4 hPa WNW 2.3 km/h 5.6 km/h 74 % 0 mm
08:53 24.9 °C 19.9 °C 1013.4 hPa West 4.3 km/h 5.6 km/h 74 % 0 mm
08:58 24.9 °C 20 °C 1013.4 hPa WNW 3.7 km/h 7.4 km/h 74 % 0 mm
09:03 25.1 °C 19.7 °C 1013.4 hPa West 7.1 km/h 11.1 km/h 72 % 0 mm
09:08 25.1 °C 19.3 °C 1013.4 hPa WNW 3.4 km/h 11.1 km/h 70 % 0 mm
09:13 25.2 °C 19.3 °C 1013.4 hPa West 4.8 km/h 5.6 km/h 70 % 0 mm
09:18 25.3 °C 19.7 °C 1013.8 hPa WSW 2.1 km/h 5.6 km/h 71 % 0 mm
09:23 25.4 °C 19.3 °C 1013.4 hPa SW 7.6 km/h 13 km/h 69 % 0 mm
09:28 25.5 °C 19.4 °C 1013.4 hPa WSW 0.6 km/h 5.6 km/h 69 % 0 mm
09:33 25.6 °C 19.7 °C 1013.4 hPa WSW 5 km/h 9.3 km/h 70 % 0 mm
09:38 25.7 °C 20.1 °C 1013.4 hPa West 3.4 km/h 5.6 km/h 71 % 0 mm
09:43 25.9 °C 20.2 °C 1013.4 hPa SW 4.3 km/h 7.4 km/h 71 % 0 mm
09:48 26.1 °C 20 °C 1013.8 hPa SW 5.3 km/h 11.1 km/h 69 % 0 mm
09:53 26.4 °C 20.6 °C 1013.8 hPa West 3.4 km/h 5.6 km/h 70 % 0 mm
09:58 26.8 °C 20.4 °C 1013.4 hPa WSW 3.1 km/h 11.1 km/h 68 % 0 mm
10:03 27.3 °C 21.1 °C 1013.4 hPa NW 4.3 km/h 7.4 km/h 69 % 0 mm
10:04 27.3 °C 21.2 °C 1013.4 hPa NW 3.5 km/h 5.6 km/h 69 % 0 mm
10:09 27.7 °C 21.3 °C 1013.4 hPa WNW 1.6 km/h 5.6 km/h 68 % 0 mm
10:14 28.2 °C 20.7 °C 1013.8 hPa WSW 3.2 km/h 5.6 km/h 64 % 0 mm
10:15 28.3 °C 20.8 °C 1013.8 hPa WSW 6.6 km/h 8 km/h 64 % 0 mm
10:20 28.8 °C 21.3 °C 1013.8 hPa WNW 2.9 km/h 8 km/h 64 % 0 mm
10:25 29.2 °C 20.6 °C 1013.8 hPa WNW 3.1 km/h 9.3 km/h 60 % 0 mm
10:31 29.4 °C 19.7 °C 1013.8 hPa West 4.8 km/h 14.5 km/h 56 % 0 mm
10:36 29.8 °C 21.2 °C 1013.8 hPa WSW 1.6 km/h 8 km/h 60 % 0 mm
10:41 30.2 °C 20.1 °C 1013.8 hPa WNW 1.6 km/h 11.3 km/h 55 % 0 mm
10:46 30.3 °C 19.7 °C 1013.4 hPa West 3.2 km/h 11.3 km/h 53 % 0 mm
10:51 30.6 °C 20.2 °C 1013.4 hPa WSW 5.3 km/h 9.3 km/h 54 % 0 mm
10:56 30.8 °C 20.1 °C 1013.4 hPa WSW 8 km/h 16.1 km/h 53 % 0 mm
11:01 30.9 °C 20.2 °C 1013.4 hPa West 7.1 km/h 11.1 km/h 53 % 0 mm
11:06 30.9 °C 20.6 °C 1013.4 hPa WSW 3.2 km/h 11.3 km/h 54 % 0 mm
11:11 31.1 °C 21.2 °C 1013.4 hPa WSW 4.5 km/h 11.3 km/h 56 % 0 mm
11:16 31.2 °C 20.2 °C 1013.4 hPa WNW 7.9 km/h 9.7 km/h 52 % 0 mm
11:20 31.3 °C 18.9 °C 1013.4 hPa WNW 5.1 km/h 11.1 km/h 48 % 0 mm
11:26 31.4 °C 19.7 °C 1013.4 hPa West 4.8 km/h 8 km/h 50 % 0 mm
11:31 31.5 °C 19.2 °C 1013.4 hPa WSW 8 km/h 16.1 km/h 48 % 0 mm
11:36 31.6 °C 19.9 °C 1013.4 hPa WSW 3.2 km/h 19.3 km/h 50 % 0 mm
11:41 31.7 °C 19.7 °C 1013.4 hPa WSW 4.8 km/h 14.5 km/h 49 % 0 mm
11:46 31.9 °C 19.8 °C 1013.4 hPa West 8 km/h 14.5 km/h 49 % 0 mm
11:51 32.1 °C 19.3 °C 1013.4 hPa WSW 8 km/h 11.3 km/h 47 % 0 mm
11:56 32.2 °C 19.4 °C 1013.4 hPa WSW 8 km/h 14.5 km/h 47 % 0 mm
12:01 32.3 °C 19.6 °C 1013.4 hPa WSW 6.1 km/h 7.4 km/h 47 % 0 mm
12:06 32.4 °C 20.1 °C 1013.4 hPa West 3.2 km/h 9.7 km/h 48 % 0 mm
12:11 32.6 °C 20.2 °C 1013.4 hPa West 1.6 km/h 9.7 km/h 48 % 0 mm
12:16 32.8 °C 20.4 °C 1013.4 hPa West 3.2 km/h 9.7 km/h 48 % 0 mm
12:21 33 °C 21.2 °C 1013.4 hPa WSW 4.8 km/h 9.7 km/h 50 % 0 mm
12:26 33.1 °C 19.6 °C 1013.1 hPa WSW 3.2 km/h 11.3 km/h 45 % 0 mm
12:31 33.2 °C 19.7 °C 1013.1 hPa WSW 4.8 km/h 9.7 km/h 45 % 0 mm
12:36 33.3 °C 20.2 °C 1013.1 hPa WSW 1.6 km/h 11.3 km/h 46 % 0 mm
12:41 33.5 °C 20.3 °C 1013.1 hPa WSW 3.2 km/h 11.3 km/h 46 % 0 mm
12:46 33.5 °C 19.6 °C 1013.1 hPa WNW 3.7 km/h 7.4 km/h 44 % 0 mm
12:51 33.6 °C 20.3 °C 1013.1 hPa West 4.7 km/h 8 km/h 46 % 0 mm
12:56 33.6 °C 18.9 °C 1012.8 hPa SW 4.2 km/h 13 km/h 42 % 0 mm
13:01 33.6 °C 20.1 °C 1012.8 hPa South 4.2 km/h 11.1 km/h 45 % 0 mm
13:06 33.6 °C 20.4 °C 1012.8 hPa SW 2.3 km/h 8 km/h 46 % 0 mm
13:11 33.7 °C 19 °C 1012.8 hPa SW 6.3 km/h 9.3 km/h 42 % 0 mm
13:16 33.7 °C 20.8 °C 1012.8 hPa WSW 6.6 km/h 11.1 km/h 47 % 0 mm
13:21 33.8 °C 19.4 °C 1012.8 hPa West 5 km/h 7.4 km/h 43 % 0 mm
13:26 33.8 °C 20.9 °C 1012.8 hPa SSW 3.4 km/h 8 km/h 47 % 0 mm
13:31 33.9 °C 19.6 °C 1012.8 hPa West 3.4 km/h 5.6 km/h 43 % 0 mm
13:36 34.1 °C 20.4 °C 1012.8 hPa WNW 2.4 km/h 7.4 km/h 45 % 0 mm
13:41 34.2 °C 20.2 °C 1012.4 hPa WNW 4 km/h 5.6 km/h 44 % 0 mm
13:47 34.3 °C 20.3 °C 1012.4 hPa WSW 1.1 km/h 4.8 km/h 44 % 0 mm
13:51 34.4 °C 20.4 °C 1012.4 hPa West 3.9 km/h 6.4 km/h 44 % 0 mm
13:56 34.6 °C 19.4 °C 1012.8 hPa NW 6.4 km/h 6.4 km/h 41 % 0 mm
14:01 34.6 °C 19.8 °C 1012.8 hPa West 1.1 km/h 8 km/h 42 % 0 mm
14:07 34.7 °C 21.3 °C 1012.8 hPa NW 3.1 km/h 5.6 km/h 46 % 0 mm
14:11 34.7 °C 19.6 °C 1012.4 hPa SW 4.3 km/h 16.7 km/h 41 % 0 mm
14:16 34.7 °C 19.9 °C 1012.4 hPa WNW 0.8 km/h 3.7 km/h 42 % 0 mm
14:21 34.8 °C 20.7 °C 1012.8 hPa ESE 5 km/h 7.4 km/h 44 % 0 mm
14:26 34.8 °C 20 °C 1012.4 hPa West 3.7 km/h 5.6 km/h 42 % 0 mm
14:31 34.8 °C 21.1 °C 1012.4 hPa North 1.6 km/h 7.4 km/h 45 % 0 mm
14:37 34.8 °C 20 °C 1012.4 hPa WNW 1 km/h 1.9 km/h 42 % 0 mm
14:42 34.8 °C 20.7 °C 1012.4 hPa NW 0.5 km/h 7.4 km/h 44 % 0 mm
14:47 34.8 °C 20.4 °C 1012.4 hPa NW 3.7 km/h 8 km/h 43 % 0 mm
14:52 34.9 °C 20.1 °C 1012.4 hPa NW 2.7 km/h 7.4 km/h 42 % 0 mm
14:57 34.8 °C 19.6 °C 1012.4 hPa WNW 2.1 km/h 9.3 km/h 41 % 0 mm
15:02 34.8 °C 19.2 °C 1012.4 hPa WNW 7.7 km/h 13 km/h 40 % 0 mm
15:07 34.8 °C 20.7 °C 1012.4 hPa NW 1.9 km/h 5.6 km/h 44 % 0 mm
15:12 34.7 °C 19.5 °C 1012.4 hPa WNW 8 km/h 13 km/h 41 % 0 mm
15:17 34.6 °C 20.2 °C 1012.4 hPa West 3.9 km/h 9.3 km/h 43 % 0 mm
15:22 34.6 °C 19.4 °C 1012.4 hPa North 5.3 km/h 11.1 km/h 41 % 0 mm
15:27 34.6 °C 20.6 °C 1012.4 hPa WNW 2.1 km/h 8 km/h 44 % 0 mm
15:32 34.5 °C 19.7 °C 1012.4 hPa NNW 3.9 km/h 7.4 km/h 42 % 0 mm
15:37 34.6 °C 20.5 °C 1012.4 hPa NW 1.4 km/h 5.6 km/h 44 % 0 mm
15:42 34.6 °C 20.2 °C 1012.4 hPa NE 2.9 km/h 5.6 km/h 43 % 0 mm
15:47 34.4 °C 19.3 °C 1012.8 hPa NW 4.3 km/h 5.6 km/h 41 % 0 mm
15:49 34.4 °C 19.7 °C 1012.4 hPa NW 5.5 km/h 6.4 km/h 42 % 0 mm
15:55 34.3 °C 20.3 °C 1012.8 hPa NE 2.6 km/h 5.6 km/h 44 % 0 mm
16:00 34.1 °C 20.5 °C 1012.4 hPa NW 2.6 km/h 8 km/h 45 % 0 mm
16:05 34.1 °C 19.8 °C 1012.4 hPa WNW 2.6 km/h 6.4 km/h 43 % 0 mm
16:10 34.1 °C 19.8 °C 1012.4 hPa NNW 4.2 km/h 6.4 km/h 43 % 0 mm
16:15 34 °C 19.7 °C 1012.4 hPa North 1.9 km/h 3.7 km/h 43 % 0 mm
16:20 33.8 °C 19.9 °C 1012.4 hPa NNW 2.7 km/h 5.6 km/h 44 % 0 mm
16:21 33.8 °C 19.9 °C 1012.4 hPa North 1.6 km/h 9.7 km/h 44 % 0 mm
16:26 33.8 °C 19.5 °C 1012.4 hPa WNW 1.6 km/h 11.3 km/h 43 % 0 mm
16:30 33.8 °C 19.9 °C 1012.4 hPa WNW 3.7 km/h 7.4 km/h 44 % 0 mm
16:36 33.8 °C 19.8 °C 1012.4 hPa WNW 1.6 km/h 6.4 km/h 44 % 0 mm
16:41 33.7 °C 19.8 °C 1012.4 hPa NNW 1.6 km/h 4.8 km/h 44 % 0 mm
16:46 33.6 °C 20.4 °C 1012.4 hPa NNW 3.2 km/h 8 km/h 46 % 0 mm
16:51 33.6 °C 19.6 °C 1012.4 hPa NW 1.6 km/h 8 km/h 44 % 0 mm
16:56 33.6 °C 19.6 °C 1012.4 hPa NW 4.8 km/h 11.3 km/h 44 % 0 mm
17:01 33.4 °C 19.9 °C 1012.1 hPa Calm   1.9 km/h 45 % 0 mm
17:06 33.3 °C 20.1 °C 1012.1 hPa WNW 1.6 km/h 3.7 km/h 46 % 0 mm
17:11 33.2 °C 19.3 °C 1012.1 hPa WNW 1.6 km/h 4.8 km/h 44 % 0 mm
17:16 32.9 °C 19.1 °C 1012.1 hPa West 4.8 km/h 9.7 km/h 44 % 0 mm
17:21 32.8 °C 19.3 °C 1012.1 hPa SW 3.2 km/h 6.4 km/h 45 % 0 mm
17:26 32.5 °C 19.1 °C 1012.4 hPa SW 1.6 km/h 6.4 km/h 45 % 0 mm
17:31 32.2 °C 19.4 °C 1012.1 hPa SW 1.6 km/h 4.8 km/h 47 % 0 mm
17:36 31.9 °C 19.2 °C 1012.1 hPa WSW 4.8 km/h 12.9 km/h 47 % 0 mm
17:40 31.7 °C 19 °C 1012.1 hPa WSW 3.2 km/h 8 km/h 47 % 0 mm
17:46 31.6 °C 18.9 °C 1012.1 hPa WSW 3.2 km/h 9.7 km/h 47 % 0 mm
17:51 31.4 °C 18.8 °C 1012.1 hPa SW 1.1 km/h 9.3 km/h 47 % 0 mm
17:55 31.3 °C 19.3 °C 1012.1 hPa WSW 1.6 km/h 9.7 km/h 49 % 0 mm
18:01 31.2 °C 18.2 °C 1012.4 hPa WNW 3.1 km/h 11.1 km/h 46 % 0 mm
18:03 31.1 °C 18.1 °C 1012.4 hPa West 7.4 km/h 9.3 km/h 46 % 0 mm
18:08 31 °C 18.7 °C 1012.4 hPa SW 3.4 km/h 6.4 km/h 48 % 0 mm
18:13 30.9 °C 19.3 °C 1012.8 hPa South 5.1 km/h 11.1 km/h 50 % 0 mm
18:18 30.7 °C 19.7 °C 1012.4 hPa South 0.6 km/h 3.7 km/h 52 % 0 mm
18:24 30.7 °C 20 °C 1012.8 hPa SSW 2.7 km/h 8 km/h 53 % 0 mm
18:29 30.5 °C 20.2 °C 1012.8 hPa WSW 1 km/h 3.2 km/h 54 % 0 mm
18:34 30.3 °C 20.3 °C 1012.8 hPa WSW 1.4 km/h 7.4 km/h 55 % 0 mm
18:39 30.1 °C 20 °C 1012.8 hPa SW 1.4 km/h 5.6 km/h 55 % 0 mm
18:44 29.8 °C 20.1 °C 1012.8 hPa SW 1.4 km/h 9.3 km/h 56 % 0 mm
18:49 29.7 °C 20.2 °C 1012.8 hPa WSW 4.5 km/h 11.1 km/h 57 % 0 mm
18:54 29.5 °C 20.1 °C 1012.8 hPa WSW 0.8 km/h 3.7 km/h 57 % 0 mm
18:59 29.3 °C 20.2 °C 1012.8 hPa WSW 2.1 km/h 5.6 km/h 58 % 0 mm
19:04 29.2 °C 19.8 °C 1012.8 hPa SW 0.8 km/h 5.6 km/h 57 % 0 mm
19:09 29 °C 19.9 °C 1012.8 hPa NW 4.8 km/h 9.3 km/h 58 % 0 mm
19:14 28.8 °C 20 °C 1012.8 hPa WSW 2.3 km/h 5.6 km/h 59 % 0 mm
19:19 28.7 °C 19.9 °C 1012.8 hPa WSW 0.5 km/h 3.7 km/h 59 % 0 mm
19:24 28.6 °C 19.8 °C 1012.8 hPa WSW 0.6 km/h 1.9 km/h 59 % 0 mm
19:29 28.5 °C 20 °C 1012.8 hPa Calm   1.9 km/h 60 % 0 mm
19:34 28.4 °C 19.9 °C 1012.8 hPa SW 0.2 km/h 1.9 km/h 60 % 0 mm
19:39 28.3 °C 20.1 °C 1012.8 hPa SW 0.6 km/h 3.7 km/h 61 % 0 mm
19:44 28.2 °C 20 °C 1013.1 hPa East 0.3 km/h 1.9 km/h 61 % 0 mm
19:49 28.1 °C 20.2 °C 1013.1 hPa Calm   1.9 km/h 62 % 0 mm
19:54 27.9 °C 20 °C 1013.1 hPa East 0.5 km/h 3.7 km/h 62 % 0 mm
19:59 27.8 °C 19.9 °C 1013.1 hPa Calm   3.7 km/h 62 % 0 mm
20:04 27.7 °C 20.1 °C 1013.1 hPa WSW 1 km/h 3.7 km/h 63 % 0 mm
20:09 27.6 °C 19.9 °C 1013.1 hPa WSW 0.6 km/h 3.7 km/h 63 % 0 mm
20:14 27.4 °C 19.7 °C 1013.1 hPa SW 0.6 km/h 3.7 km/h 63 % 0 mm
20:19 27.3 °C 19.6 °C 1013.1 hPa SW 0.5 km/h 1.9 km/h 63 % 0 mm
20:24 27.1 °C 19.7 °C 1013.1 hPa Calm   1.9 km/h 64 % 0 mm
20:29 26.9 °C 19.5 °C 1013.1 hPa Calm     64 % 0 mm
20:34 26.8 °C 19.4 °C 1013.1 hPa Calm     64 % 0 mm
20:39 26.6 °C 19.5 °C 1013.1 hPa Calm     65 % 0 mm
20:44 26.5 °C 19.6 °C 1013.1 hPa Calm     66 % 0 mm
20:49 26.3 °C 19.4 °C 1013.1 hPa SW 0.5 km/h 1.9 km/h 66 % 0 mm
20:54 26.2 °C 19.6 °C 1013.4 hPa Calm     67 % 0 mm
20:59 26 °C 19.4 °C 1013.4 hPa Calm     67 % 0 mm
21:04 25.9 °C 19.3 °C 1013.4 hPa Calm     67 % 0 mm
21:09 25.8 °C 19.4 °C 1013.4 hPa SW 0.2 km/h 1.9 km/h 68 % 0 mm
21:14 25.7 °C 19.3 °C 1013.8 hPa Calm   1.9 km/h 68 % 0 mm
21:19 25.5 °C 19.2 °C 1013.8 hPa SW 0.8 km/h 1.9 km/h 68 % 0 mm
21:24 25.4 °C 19.1 °C 1013.8 hPa Calm   1.9 km/h 68 % 0 mm
21:29 25.3 °C 18.9 °C 1013.8 hPa Calm     68 % 0 mm
21:34 25.2 °C 18.8 °C 1013.8 hPa SW 0.2 km/h 1.6 km/h 68 % 0 mm
21:39 25.1 °C 19 °C 1013.8 hPa Calm     69 % 0 mm
21:45 25 °C 18.9 °C 1013.8 hPa Calm     69 % 0 mm
21:50 24.9 °C 18.8 °C 1014.1 hPa Calm   1.9 km/h 69 % 0 mm
21:55 24.8 °C 18.8 °C 1014.1 hPa SW 1 km/h 3.7 km/h 69 % 0 mm
22:00 24.7 °C 18.7 °C 1014.1 hPa Calm   1.9 km/h 69 % 0 mm
22:05 24.7 °C 18.8 °C 1014.1 hPa SW 1.1 km/h 3.7 km/h 70 % 0 mm
22:10 24.6 °C 18.7 °C 1014.1 hPa Calm   1.9 km/h 70 % 0 mm
22:15 24.5 °C 18.7 °C 1014.1 hPa SW 0.6 km/h 1.9 km/h 70 % 0 mm
22:20 24.4 °C 18.6 °C 1014.1 hPa SW 1.9 km/h 3.7 km/h 70 % 0 mm
22:25 24.3 °C 18.7 °C 1014.1 hPa SW 2.1 km/h 3.7 km/h 71 % 0 mm
22:30 24.2 °C 18.6 °C 1014.1 hPa SW 0.8 km/h 1.9 km/h 71 % 0 mm
22:35 24.1 °C 18.5 °C 1014.1 hPa Calm   1.9 km/h 71 % 0 mm
22:40 24.1 °C 18.4 °C 1014.1 hPa Calm     71 % 0 mm
22:45 23.9 °C 18.6 °C 1014.1 hPa Calm     72 % 0 mm
22:50 23.8 °C 18.5 °C 1014.1 hPa Calm     72 % 0 mm
22:55 23.7 °C 18.6 °C 1014.1 hPa Calm     73 % 0 mm
23:00 23.7 °C 18.8 °C 1014.1 hPa Calm     74 % 0 mm
23:05 23.6 °C 18.7 °C 1014.1 hPa Calm     74 % 0 mm
23:11 23.4 °C 18.8 °C 1014.1 hPa West 0.2 km/h   75 % 0 mm
23:16 23.3 °C 18.7 °C 1014.1 hPa Calm   1.6 km/h 75 % 0 mm
23:21 23.2 °C 18.6 °C 1014.1 hPa Calm     75 % 0 mm
23:26 23.2 °C 18.5 °C 1014.1 hPa Calm     75 % 0 mm
23:31 23.1 °C 18.8 °C 1014.1 hPa Calm     77 % 0 mm
23:35 22.9 °C 18.7 °C 1014.1 hPa Calm     77 % 0 mm
23:40 22.8 °C 18.8 °C 1014.1 hPa Calm     78 % 0 mm
23:46 22.8 °C 18.6 °C 1013.8 hPa Calm     77 % 0 mm
23:49 22.7 °C 18.5 °C 1014.1 hPa Calm     77 % 0 mm
23:54 22.7 °C 18.6 °C 1014.1 hPa Calm     78 % 0 mm
23:59 22.7 °C 19.1 °C 1014.8 hPa West 4.3 km/h 5.6 km/h 80 % 0 mm
Crab Meadow Weather
Compliments of Weather Underground - 3 mb

Script developed by  Jim McMurry - jmcmurry@mwt.net Adapted for the template by  Wim van der Kuil - Leuven-Template.eu

Weather Terms: Dew Point - A measure of atmospheric moisture. It is the temperature to which air must be cooled in order to reach saturation (assuming pressure and moisture content are constant).